Flag for U.S.A. Weather past 2 weeks in Gainesville, Florida, U.S.A.

Now
79 °F

Scattered clouds.


Feels Like: 83 °F
Forecast: 73 / 88 °F
Wind: 5 mph from North

Location: Gainesville Regional Airport

Current Time: Aug 5, 2015 at 9:20:47 AM

Latest Report: Aug 5, 2015 at 8:53 AM


Visibility: 9 mi

Pressure: 30.10 "Hg

Humidity: 90%

Dew point: 76 °F

Location of GainesvilleLocation

Historic Weather in Gainesville — Graph

°F

Gainesville temperature yesterday

Maximum temperature yesterday: 86 °F (at 3:53 PM)
Minimum temperature yesterday: 74 °F (at 12:02 AM)
Average temperature yesterday: 79 °F

Past Weeks' High & Low Weather Summary

 TemperatureHumidityPressure
High94 °F (Jul 22, 4:53 PM)100% (Jul 31, 5:53 AM)30.09 "Hg (Jul 31, 5:53 AM)
Low72 °F (Jul 25, 5:53 AM)49% (Jul 22, 4:53 PM)29.80 "Hg (Aug 3, 2:53 AM)
Average80 °F84%29.93 "Hg
* Reported Jul 21 7:53 AM — Aug 5 7:53 AM, Gainesville, Weather by CustomWeather, © 2015

Note: Actual official high and low records may vary slightly from our data, if they occured in-between our weather recording intervals... More about our weather records

Advertising

Gainesville weather history for previous 24 hours

 ConditionsComfort  
Time TempWeatherWind HumidityBarometerVisibility
7:53 AM
Wed, Aug 5
75 °FLight fog.No wind96%30.09 "Hg8 mi
6:53 AM73 °FClear.No wind100%30.08 "Hg7 mi
5:53 AM75 °FClear.No wind96%30.07 "Hg7 mi
5:01 AM75 °FFog.3 mph96%30.08 "Hg3 mi
3:53 AM76 °FFog.No wind97%30.06 "Hg1 mi
3:04 AM75 °FFog.3 mph96%30.07 "Hg6 mi
2:53 AM75 °FFog.3 mph96%30.06 "Hg6 mi
1:53 AM77 °FClear.3 mph94%30.07 "Hg8 mi
12:53 AM77 °FClear.3 mph94%30.08 "Hg10 mi
11:53 PM
Tue, Aug 4
77 °FClear.6 mph94%30.07 "Hg10 mi
10:53 PM78 °FClear.5 mph87%30.05 "Hg10 mi
9:53 PM79 °FClear.6 mph84%30.03 "Hg10 mi
8:53 PM78 °FSunny.5 mph84%30.02 "Hg10 mi
7:53 PM78 °FSunny.No wind82%30.03 "Hg10 mi
6:53 PM78 °FSunny.3 mph79%30.03 "Hg10 mi
5:53 PM77 °FPassing clouds.3 mph77%30.03 "Hg10 mi
4:53 PM86 °FThunderstorms. Cloudy.9 mph67%30.01 "Hg10 mi
3:53 PM86 °FScattered clouds.9 mph72%30.01 "Hg10 mi
2:53 PM85 °FWarm.N/A72%30.03 "Hg10 mi
1:53 PM83 °FPartly sunny.8 mph72%30.05 "Hg10 mi
12:53 PM82 °FPartly sunny.6 mph77%30.05 "Hg10 mi
11:53 AM83 °FPassing clouds.10 mph77%30.04 "Hg10 mi
11:00 AM85 °FScattered clouds.N/A77%30.04 "Hg10 mi
10:04 AM83 °FBroken clouds.N/A85%30.04 "Hg10 mi
9:53 AM82 °FPartly sunny.N/A88%30.03 "Hg10 mi
Weather by CustomWeather, © 2015

See weather overviewHow to use our weather pages